This demonstration page uses our WeatherBlox Daily Observations layout. Learn more.

Left ArrowRight Arrow

Hourly Observations for November 25, 2019

Temp ( °F °C ) Dew Point ( °F °C ) Humidity (%) Winds ( mph kmh ) Pressure ( in mb ) Visibility ( mi km ) Precip ( " mm )
12:56 am 00:56 Clear 42 5.6 27 -2.8 55 55 NW 6 9 29.60 1003 10 16 0.00 0.00
1:56 am 01:56 Clear 39 3.9 26 -3.3 60 60 NW 12 19 29.61 1003 10 16 0.00 0.00
2:56 am 02:56 Clear 40 4.4 26 -3.3 58 58 NW 10 17 29.62 1003 10 16 0.00 0.00
3:56 am 03:56 Clear 40 4.4 27 -2.8 60 60 NW 13 20 29.64 1004 10 16 0.00 0.00
4:56 am 04:56 Clear 40 4.4 29 -1.7 65 65 NNW 12 19 29.68 1005 10 16 0.00 0.00
5:56 am 05:56 Clear 38 3.3 29 -1.7 70 70 NW 12 19 29.72 1006 10 16 0.00 0.00
6:56 am 06:56 Clear 36 2.2 29 -1.7 76 76 NNW 10 17 29.75 1007 10 16 0.00 0.00
7:56 am 07:56 Sunny 36 2.2 29 -1.7 76 76 NNW 9 15 29.78 1008 10 16 0.00 0.00
8:56 am 08:56 Sunny 37 2.8 29 -1.7 73 73 WNW 8 13 29.79 1009 10 16 0.00 0.00
9:56 am 09:56 Sunny 44 6.7 30 -1.1 58 58 NW 9 15 29.80 1009 10 16 0.00 0.00
10:56 am 10:56 Sunny 45 7.2 27 -2.8 49 49 N 13 20 29.79 1009 10 16 0.00 0.00
11:56 am 11:56 Sunny 50 10 22 -5.6 33 33 N 17 28 29.77 1008 10 16 0.00 0.00
12:56 pm 12:56 Sunny 52 11.1 20 -6.7 28 28 NNW 13 20 29.75 1007 10 16 0.00 0.00
1:56 pm 13:56 Sunny 52 11.1 20 -6.7 28 28 N 13 20 29.73 1007 10 16 0.00 0.00
2:56 pm 14:56 Sunny 52 11.1 20 -6.7 28 28 NNE 15 24 29.72 1006 10 16 0.00 0.00
3:56 pm 15:56 Sunny 50 10 21 -6.1 32 32 NNE 10 17 29.72 1006 10 16 0.00 0.00
4:56 pm 16:56 Sunny 43 6.1 24 -4.4 47 47 NE 10 17 29.75 1008 10 16 0.00 0.00
5:56 pm 17:56 Clear 42 5.6 24 -4.4 49 49 NNE 7 11 29.78 1008 10 16 0.00 0.00
6:56 pm 18:56 Mostly Clear 41 5 24 -4.4 51 51 NE 10 17 29.78 1008 10 16 0.00 0.00
7:56 pm 19:56 Clear 39 3.9 25 -3.9 57 57 NE 9 15 29.77 1008 10 16 0.00 0.00
8:56 pm 20:56 Mostly Cloudy 39 3.9 26 -3.3 60 60 NE 10 17 29.78 1008 10 16 0.00 0.00
9:56 pm 21:56 Clear 36 2.2 26 -3.3 67 67 NE 10 17 29.77 1008 10 16 0.00 0.00
10:56 pm 22:56 Clear 35 1.7 25 -3.9 67 67 ENE 8 13 29.77 1008 10 16 0.00 0.00
11:56 pm 23:56 Clear 31 -0.6 25 -3.9 79 79 ENE 7 11 29.77 1008 10 16 0.00 0.00

Powered by AerisWeather